Location: Powder Track
(41.8531°N, 72.3584°W)
Time: 09:35:39
(UTC+00:00)

Transit 4A - Pass Details

Date: 05 August 2021
Orbit: 871 x 974 km, 66.8° (Epoch: 20 September)

Event Time Altitude Azimuth Distance (km) Brightness Sun altitude
Rises 06:05:06 0° 274° (W) 3,474 - -29.1°
Exits shadow 06:06:55 - 285° (WNW) 3,003 10.5 -29.0°
Reaches altitude 10° 06:09:26 10° 305° (NW) 2,527 10.3 -28.8°
Maximum altitude 06:11:39 12° 327° (NNW) 2,374 10.4 -28.7°
Drops below altitude 10° 06:13:53 10° 350° (N) 2,525 10.9 -28.5°
Sets 06:18:14 0° 21° (NNE) 3,469 12.2 -28.2°
